Home > Weather > Lubbock > Past weeks

Flag for U.S.A. Weather for the Past 2 Weeks in Lubbock, Texas, U.S.A.

Now
69 °F

Broken clouds.


Feels Like: 69 °F
Forecast: 35 / 69 °F
Wind: 18 mph from South

Location: Lubbock International Airport

Current Time: Feb 13, 2016 at 2:34:40 PM

Latest Report: Feb 13, 2016 at 1:53 PM


Visibility: 9 mi

Pressure: 30.09 "Hg (26.86 "Hg at 976m altitude)

Humidity: 31%

Dew point: 37 °F

Location of LubbockLocation

Historic Weather in Lubbock — Graph

°F

Lubbock Temperature Yesterday

Maximum temperature yesterday: 70 °F (at 2:53 PM)
Minimum temperature yesterday: 29 °F (at 6:53 AM)
Average temperature yesterday: 49 °F

High & Low Weather Summary for the Past Weeks

 TemperatureHumidityPressure
High80 °F (Jan 30, 1:53 PM)96% (Feb 1, 5:53 AM)30.50 "Hg (Feb 1, 5:53 AM)
Low18 °F (Feb 6, 6:53 AM)7% (Jan 29, 1:53 PM)29.41 "Hg (Feb 1, 2:53 PM)
Average44 °F43%30.09 "Hg
* Reported Jan 29 12:53 PM — Feb 13 12:53 PM, Lubbock, Weather by CustomWeather, © 2016

Note: Actual official high and low records may vary slightly from our data, if they occured in-between our weather recording intervals... More about our weather records

Advertising

Lubbock Weather History for the Previous 24 Hours

 ConditionsComfort  
Time TempWeatherWind HumidityBarometerVisibility
12:53 PM
Sat, Feb 13
65 °FBroken clouds.22 mph39%30.15 "Hg10 mi
11:53 AM59 °FScattered clouds.16 mph48%30.21 "Hg9 mi
10:53 AM53 °FScattered clouds.14 mph51%30.25 "Hg8 mi
9:53 AM43 °FPassing clouds.12 mph68%30.29 "Hg8 mi
8:53 AM36 °FPassing clouds.9 mph82%30.31 "Hg7 mi
7:53 AM30 °FPassing clouds.5 mph89%30.32 "Hg7 mi
6:53 AM32 °FClear.7 mph85%30.30 "Hg9 mi
5:53 AM31 °FClear.6 mph89%30.28 "Hg10 mi
4:53 AM33 °FClear.8 mph85%30.26 "Hg10 mi
3:53 AM35 °FClear.8 mph82%30.27 "Hg10 mi
2:53 AM36 °FClear.7 mph79%30.28 "Hg10 mi
1:53 AM37 °FClear.10 mph76%30.29 "Hg10 mi
12:53 AM38 °FClear.9 mph73%30.28 "Hg10 mi
11:53 PM
Fri, Feb 12
39 °FClear.10 mph70%30.29 "Hg10 mi
10:53 PM41 °FClear.10 mph62%30.29 "Hg10 mi
9:53 PM44 °FClear.10 mph53%30.28 "Hg10 mi
8:53 PM48 °FClear.10 mph48%30.29 "Hg10 mi
7:53 PM52 °FClear.12 mph40%30.30 "Hg10 mi
6:53 PM54 °FClear.9 mph33%30.28 "Hg10 mi
5:53 PM65 °FSunny.12 mph21%30.24 "Hg10 mi
4:53 PM68 °FSunny.13 mph18%30.22 "Hg10 mi
3:53 PM70 °FSunny.17 mph17%30.19 "Hg10 mi
2:53 PM70 °FPassing clouds.14 mph18%30.20 "Hg10 mi
Weather by CustomWeather, © 2016

See weather overviewHow to use our weather pages